Time,TemperatureF,DewpointF,PressureIn,WindDirection,WindDirectionDegrees,WindSpeedMPH,WindSpeedGustMPH,Humidity,HourlyPrecipIn,Conditions,Clouds,dailyrainin,SoftwareType,DateUTC
2013-03-10 00:02:00,62.0,-99.9,30.17,ENE,75,6.0,9.0,-999,-99.99,,,-99.99,,2013-03-10 05:02:00,
2013-03-10 00:11:00,62.0,-99.9,30.17,East,87,4.0,7.0,-999,-99.99,,,-99.99,,2013-03-10 05:11:00,
2013-03-10 00:22:00,61.0,-99.9,30.15,ENE,77,8.0,11.0,-999,-99.99,,,-99.99,,2013-03-10 05:22:00,
2013-03-10 00:32:00,61.0,-99.9,30.16,East,92,6.0,11.0,-999,-99.99,,,-99.99,,2013-03-10 05:32:00,
2013-03-10 00:42:00,61.0,-99.9,30.15,ENE,73,5.0,10.0,-999,-99.99,,,-99.99,,2013-03-10 05:42:00,
2013-03-10 00:52:00,61.0,-99.9,30.14,ENE,78,4.0,9.0,-999,-99.99,,,-99.99,,2013-03-10 05:52:00,
2013-03-10 01:02:00,61.0,-99.9,30.13,ENE,77,9.0,13.0,-999,-99.99,,,-99.99,,2013-03-10 06:02:00,
2013-03-10 01:11:00,61.0,-99.9,30.14,ENE,70,3.0,9.0,-999,-99.99,,,-99.99,,2013-03-10 06:11:00,
2013-03-10 01:22:00,61.0,-99.9,30.15,East,86,4.0,8.0,-999,-99.99,,,-99.99,,2013-03-10 06:22:00,
2013-03-10 01:32:00,61.0,-99.9,30.15,ENE,74,6.0,9.0,-999,-99.99,,,-99.99,,2013-03-10 06:32:00,
2013-03-10 01:42:00,61.0,-99.9,30.13,East,81,6.0,10.0,-999,-99.99,,,-99.99,,2013-03-10 06:42:00,
2013-03-10 01:52:00,60.0,-99.9,30.12,East,84,6.0,10.0,-999,-99.99,,,-99.99,,2013-03-10 06:52:00,
2013-03-10 03:02:00,60.0,-99.9,30.12,East,88,6.0,10.0,-999,-99.99,,,-99.99,,2013-03-10 07:02:00,
2013-03-10 03:11:00,60.0,-99.9,30.12,ENE,78,6.0,9.0,-999,-99.99,,,-99.99,,2013-03-10 07:11:00,
2013-03-10 03:21:00,60.0,-99.9,30.11,East,80,5.0,9.0,-999,-99.99,,,-99.99,,2013-03-10 07:21:00,
2013-03-10 03:32:00,60.0,-99.9,30.11,East,79,5.0,10.0,-999,-99.99,,,-99.99,,2013-03-10 07:32:00,
2013-03-10 03:42:00,60.0,-99.9,30.11,East,80,5.0,9.0,-999,-99.99,,,-99.99,,2013-03-10 07:42:00,
2013-03-10 03:52:00,60.0,-99.9,30.11,East,84,6.0,10.0,-999,-99.99,,,-99.99,,2013-03-10 07:52:00,
2013-03-10 04:02:00,60.0,-99.9,30.10,East,79,5.0,11.0,-999,-99.99,,,-99.99,,2013-03-10 08:02:00,
2013-03-10 04:12:00,60.0,-99.9,30.11,East,84,5.0,8.0,-999,-99.99,,,-99.99,,2013-03-10 08:12:00,
2013-03-10 04:21:00,60.0,-99.9,30.11,East,81,5.0,8.0,-999,-99.99,,,-99.99,,2013-03-10 08:21:00,
2013-03-10 04:32:00,60.0,-99.9,30.11,East,87,5.0,8.0,-999,-99.99,,,-99.99,,2013-03-10 08:32:00,
2013-03-10 04:42:00,60.0,-99.9,30.11,East,81,5.0,11.0,-999,-99.99,,,-99.99,,2013-03-10 08:42:00,
2013-03-10 04:52:00,60.0,-99.9,30.11,East,99,5.0,9.0,-999,-99.99,,,-99.99,,2013-03-10 08:52:00,
2013-03-10 05:02:00,60.0,-99.9,30.11,East,93,5.0,7.0,-999,-99.99,,,-99.99,,2013-03-10 09:02:00,
2013-03-10 05:11:00,60.0,-99.9,30.10,East,93,4.0,7.0,-999,-99.99,,,-99.99,,2013-03-10 09:11:00,
2013-03-10 05:21:00,59.0,-99.9,30.09,East,90,6.0,9.0,-999,-99.99,,,-99.99,,2013-03-10 09:21:00,
2013-03-10 05:32:00,59.0,-99.9,30.10,East,81,5.0,8.0,-999,-99.99,,,-99.99,,2013-03-10 09:32:00,
2013-03-10 05:42:00,59.0,-99.9,30.09,ESE,104,5.0,7.0,-999,-99.99,,,-99.99,,2013-03-10 09:42:00,
2013-03-10 05:52:00,59.0,-99.9,30.09,East,90,6.0,8.0,-999,-99.99,,,-99.99,,2013-03-10 09:52:00,
2013-03-10 06:02:00,59.0,-99.9,30.09,ENE,78,6.0,10.0,-999,-99.99,,,-99.99,,2013-03-10 10:02:00,
2013-03-10 06:11:00,59.0,-99.9,30.11,East,93,3.0,9.0,-999,-99.99,,,-99.99,,2013-03-10 10:11:00,
2013-03-10 06:22:00,59.0,-99.9,30.11,East,92,6.0,9.0,-999,-99.99,,,-99.99,,2013-03-10 10:22:00,
2013-03-10 06:32:00,59.0,-99.9,30.11,East,81,4.0,6.0,-999,-99.99,,,-99.99,,2013-03-10 10:32:00,
2013-03-10 06:42:00,59.0,-99.9,30.10,ENE,67,4.0,7.0,-999,-99.99,,,-99.99,,2013-03-10 10:42:00,
2013-03-10 06:52:00,59.0,-99.9,30.10,East,85,2.0,5.0,-999,-99.99,,,-99.99,,2013-03-10 10:52:00,
2013-03-10 07:02:00,59.0,-99.9,30.11,ENE,66,3.0,6.0,-999,-99.99,,,-99.99,,2013-03-10 11:02:00,
2013-03-10 07:12:00,59.0,-99.9,30.11,East,89,2.0,3.0,-999,-99.99,,,-99.99,,2013-03-10 11:12:00,
2013-03-10 07:22:00,59.0,-99.9,30.11,East,89,6.0,9.0,-999,-99.99,,,-99.99,,2013-03-10 11:22:00,
2013-03-10 07:32:00,59.0,-99.9,30.11,East,79,5.0,8.0,-999,-99.99,,,-99.99,,2013-03-10 11:32:00,
2013-03-10 07:42:00,59.0,-99.9,30.11,East,85,3.0,6.0,-999,-99.99,,,-99.99,,2013-03-10 11:42:00,
2013-03-10 07:52:00,59.0,-99.9,30.12,ENE,75,4.0,10.0,-999,-99.99,,,-99.99,,2013-03-10 11:52:00,
2013-03-10 08:02:00,59.0,-99.9,30.12,NE,48,4.0,8.0,-999,-99.99,,,-99.99,,2013-03-10 12:02:00,
2013-03-10 08:11:00,60.0,-99.9,30.12,NE,55,3.0,6.0,-999,-99.99,,,-99.99,,2013-03-10 12:11:00,
2013-03-10 08:21:00,59.0,-99.9,30.12,ENE,70,3.0,5.0,-999,-99.99,,,-99.99,,2013-03-10 12:21:00,
2013-03-10 08:32:00,59.0,-99.9,30.12,East,80,3.0,5.0,-999,-99.99,,,-99.99,,2013-03-10 12:32:00,
2013-03-10 08:42:00,59.0,-99.9,30.12,East,84,6.0,10.0,-999,-99.99,,,-99.99,,2013-03-10 12:42:00,
2013-03-10 08:52:00,59.0,-99.9,30.13,East,82,6.0,9.0,-999,-99.99,,,-99.99,,2013-03-10 12:52:00,
2013-03-10 09:01:00,60.0,-99.9,30.13,East,91,4.0,9.0,-999,-99.99,,,-99.99,,2013-03-10 13:01:00,
2013-03-10 09:11:00,60.0,-99.9,30.14,East,83,4.0,7.0,-999,-99.99,,,-99.99,,2013-03-10 13:11:00,
2013-03-10 09:21:00,60.0,-99.9,30.14,ENE,77,5.0,9.0,-999,-99.99,,,-99.99,,2013-03-10 13:21:00,
2013-03-10 09:32:00,61.0,-99.9,30.14,East,84,3.0,7.0,-999,-99.99,,,-99.99,,2013-03-10 13:32:00,
2013-03-10 09:42:00,62.0,-99.9,30.14,East,80,4.0,6.0,-999,-99.99,,,-99.99,,2013-03-10 13:42:00,
2013-03-10 09:52:00,62.0,-99.9,30.14,ENE,71,5.0,8.0,-999,-99.99,,,-99.99,,2013-03-10 13:52:00,
2013-03-10 10:02:00,63.0,-99.9,30.14,East,80,4.0,9.0,-999,-99.99,,,-99.99,,2013-03-10 14:02:00,
2013-03-10 10:12:00,65.0,-99.9,30.14,East,80,5.0,8.0,-999,-99.99,,,-99.99,,2013-03-10 14:12:00,
2013-03-10 10:22:00,65.0,-99.9,30.14,East,96,4.0,7.0,-999,-99.99,,,-99.99,,2013-03-10 14:22:00,
2013-03-10 10:32:00,66.0,-99.9,30.14,East,99,5.0,8.0,-999,-99.99,,,-99.99,,2013-03-10 14:32:00,
2013-03-10 10:42:00,67.0,-99.9,30.14,East,87,4.0,10.0,-999,-99.99,,,-99.99,,2013-03-10 14:42:00,
2013-03-10 10:52:00,68.0,-99.9,30.14,East,89,6.0,13.0,-999,-99.99,,,-99.99,,2013-03-10 14:52:00,
2013-03-10 11:01:00,69.0,-99.9,30.14,ESE,102,6.0,15.0,-999,-99.99,,,-99.99,,2013-03-10 15:01:00,
2013-03-10 11:11:00,69.0,-99.9,30.14,East,97,6.0,14.0,-999,-99.99,,,-99.99,,2013-03-10 15:11:00,
2013-03-10 11:21:00,69.0,-99.9,30.14,East,79,7.0,11.0,-999,-99.99,,,-99.99,,2013-03-10 15:21:00,
2013-03-10 11:32:00,70.0,-99.9,30.13,SE,129,9.0,16.0,-999,-99.99,,,-99.99,,2013-03-10 15:32:00,
2013-03-10 11:42:00,71.0,-99.9,30.13,ESE,112,9.0,15.0,-999,-99.99,,,-99.99,,2013-03-10 15:42:00,
2013-03-10 11:52:00,71.0,-99.9,30.13,ESE,123,11.0,17.0,-999,-99.99,,,-99.99,,2013-03-10 15:52:00,
2013-03-10 12:02:00,71.0,-99.9,30.14,ESE,115,9.0,19.0,-999,-99.99,,,-99.99,,2013-03-10 16:02:00,
2013-03-10 12:12:00,71.0,-99.9,30.13,ESE,121,10.0,18.0,-999,-99.99,,,-99.99,,2013-03-10 16:12:00,
2013-03-10 12:22:00,72.0,-99.9,30.13,ESE,114,10.0,18.0,-999,-99.99,,,-99.99,,2013-03-10 16:22:00,
2013-03-10 12:32:00,72.0,-99.9,30.13,ESE,115,9.0,18.0,-999,-99.99,,,-99.99,,2013-03-10 16:32:00,
2013-03-10 12:42:00,72.0,-99.9,30.12,SE,127,11.0,19.0,-999,-99.99,,,-99.99,,2013-03-10 16:42:00,
2013-03-10 12:52:00,73.0,-99.9,30.12,SE,125,8.0,18.0,-999,-99.99,,,-99.99,,2013-03-10 16:52:00,
2013-03-10 13:01:00,72.0,-99.9,30.12,East,96,8.0,14.0,-999,-99.99,,,-99.99,,2013-03-10 17:01:00,
2013-03-10 13:11:00,73.0,-99.9,30.11,East,90,10.0,17.0,-999,-99.99,,,-99.99,,2013-03-10 17:11:00,
2013-03-10 13:21:00,72.0,-99.9,30.10,ENE,73,9.0,19.0,-999,-99.99,,,-99.99,,2013-03-10 17:21:00,
2013-03-10 13:32:00,74.0,-99.9,30.09,East,96,7.0,12.0,-999,-99.99,,,-99.99,,2013-03-10 17:32:00,
2013-03-10 13:41:00,74.0,-99.9,30.08,East,80,9.0,18.0,-999,-99.99,,,-99.99,,2013-03-10 17:41:00,
2013-03-10 13:52:00,74.0,-99.9,30.08,ESE,120,11.0,17.0,-999,-99.99,,,-99.99,,2013-03-10 17:52:00,
2013-03-10 14:01:00,74.0,-99.9,30.07,SE,127,11.0,20.0,-999,-99.99,,,-99.99,,2013-03-10 18:01:00,
2013-03-10 14:12:00,74.0,-99.9,30.06,ENE,65,12.0,17.0,-999,-99.99,,,-99.99,,2013-03-10 18:12:00,
2013-03-10 14:22:00,75.0,-99.9,30.06,ESE,108,7.0,14.0,-999,-99.99,,,-99.99,,2013-03-10 18:22:00,
2013-03-10 14:32:00,75.0,-99.9,30.07,ESE,113,7.0,16.0,-999,-99.99,,,-99.99,,2013-03-10 18:32:00,
2013-03-10 14:42:00,75.0,-99.9,30.07,ESE,110,9.0,18.0,-999,-99.99,,,-99.99,,2013-03-10 18:42:00,
2013-03-10 14:52:00,76.0,-99.9,30.06,ESE,119,9.0,13.0,-999,-99.99,,,-99.99,,2013-03-10 18:52:00,
2013-03-10 15:02:00,76.0,-99.9,30.06,SE,125,10.0,16.0,-999,-99.99,,,-99.99,,2013-03-10 19:02:00,
2013-03-10 15:12:00,76.0,-99.9,30.06,ESE,115,8.0,17.0,-999,-99.99,,,-99.99,,2013-03-10 19:12:00,
2013-03-10 15:22:00,77.0,-99.9,30.06,SE,135,6.0,14.0,-999,-99.99,,,-99.99,,2013-03-10 19:22:00,
2013-03-10 15:32:00,76.0,-99.9,30.06,SE,131,8.0,14.0,-999,-99.99,,,-99.99,,2013-03-10 19:32:00,
2013-03-10 15:42:00,76.0,-99.9,30.05,East,93,10.0,17.0,-999,-99.99,,,-99.99,,2013-03-10 19:42:00,
2013-03-10 15:53:00,76.0,-99.9,30.05,ESE,103,8.0,16.0,-999,-99.99,,,-99.99,,2013-03-10 19:53:00,
2013-03-10 16:02:00,77.0,-99.9,30.05,SE,128,9.0,14.0,-999,-99.99,,,-99.99,,2013-03-10 20:02:00,
2013-03-10 16:13:00,77.0,-99.9,30.04,SE,139,9.0,14.0,-999,-99.99,,,-99.99,,2013-03-10 20:13:00,
2013-03-10 16:22:00,76.0,-99.9,30.04,ESE,120,8.0,15.0,-999,-99.99,,,-99.99,,2013-03-10 20:22:00,
2013-03-10 16:33:00,78.0,-99.9,30.04,SE,124,6.0,10.0,-999,-99.99,,,-99.99,,2013-03-10 20:33:00,
2013-03-10 16:43:00,77.0,-99.9,30.04,SE,145,10.0,14.0,-999,-99.99,,,-99.99,,2013-03-10 20:43:00,
2013-03-10 16:53:00,77.0,-99.9,30.04,ENE,69,8.0,15.0,-999,-99.99,,,-99.99,,2013-03-10 20:53:00,
2013-03-10 17:02:00,77.0,-99.9,30.04,ESE,116,10.0,16.0,-999,-99.99,,,-99.99,,2013-03-10 21:02:00,
2013-03-10 17:12:00,77.0,-99.9,30.04,ENE,63,7.0,21.0,-999,-99.99,,,-99.99,,2013-03-10 21:12:00,
2013-03-10 17:23:00,77.0,-99.9,30.03,SE,132,8.0,13.0,-999,-99.99,,,-99.99,,2013-03-10 21:23:00,
2013-03-10 17:33:00,77.0,-99.9,30.03,SE,133,11.0,14.0,-999,-99.99,,,-99.99,,2013-03-10 21:33:00,
2013-03-10 17:43:00,77.0,-99.9,30.03,ENE,73,9.0,15.0,-999,-99.99,,,-99.99,,2013-03-10 21:43:00,
2013-03-10 17:53:00,77.0,-99.9,30.03,ENE,77,7.0,13.0,-999,-99.99,,,-99.99,,2013-03-10 21:53:00,
2013-03-10 18:03:00,78.0,-99.9,30.03,ESE,107,8.0,13.0,-999,-99.99,,,-99.99,,2013-03-10 22:03:00,
2013-03-10 18:12:00,77.0,-99.9,30.03,East,89,8.0,12.0,-999,-99.99,,,-99.99,,2013-03-10 22:12:00,
2013-03-10 18:23:00,77.0,-99.9,30.03,ESE,115,8.0,12.0,-999,-99.99,,,-99.99,,2013-03-10 22:23:00,
2013-03-10 18:33:00,77.0,-99.9,30.03,ENE,76,9.0,12.0,-999,-99.99,,,-99.99,,2013-03-10 22:33:00,
2013-03-10 18:43:00,77.0,-99.9,30.04,ENE,71,9.0,11.0,-999,-99.99,,,-99.99,,2013-03-10 22:43:00,
2013-03-10 18:53:00,77.0,-99.9,30.04,ESE,120,6.0,11.0,-999,-99.99,,,-99.99,,2013-03-10 22:53:00,
2013-03-10 19:03:00,77.0,-99.9,30.04,East,90,6.0,13.0,-999,-99.99,,,-99.99,,2013-03-10 23:03:00,
2013-03-10 19:13:00,76.0,-99.9,30.04,ENE,66,6.0,13.0,-999,-99.99,,,-99.99,,2013-03-10 23:13:00,
2013-03-10 19:23:00,76.0,-99.9,30.04,East,85,5.0,12.0,-999,-99.99,,,-99.99,,2013-03-10 23:23:00,
2013-03-10 19:33:00,76.0,-99.9,30.04,East,87,6.0,10.0,-999,-99.99,,,-99.99,,2013-03-10 23:33:00,
2013-03-10 19:43:00,75.0,-99.9,30.04,East,89,5.0,10.0,-999,-99.99,,,-99.99,,2013-03-10 23:43:00,
2013-03-10 19:53:00,75.0,-99.9,30.05,East,99,4.0,7.0,-999,-99.99,,,-99.99,,2013-03-10 23:53:00,
2013-03-10 20:03:00,71.0,-99.9,30.05,WSW,249,5.0,7.0,-999,-99.99,,,-99.99,,2013-03-11 00:03:00,
2013-03-10 20:13:00,70.0,-99.9,30.06,SW,224,3.0,5.0,-999,-99.99,,,-99.99,,2013-03-11 00:13:00,
2013-03-10 20:23:00,70.0,-99.9,30.06,SSW,202,4.0,10.0,-999,-99.99,,,-99.99,,2013-03-11 00:23:00,
2013-03-10 20:33:00,69.0,-99.9,30.06,WSW,239,4.0,6.0,-999,-99.99,,,-99.99,,2013-03-11 00:33:00,
2013-03-10 20:43:00,69.0,-99.9,30.07,WSW,238,2.0,6.0,-999,-99.99,,,-99.99,,2013-03-11 00:43:00,
2013-03-10 20:53:00,69.0,-99.9,30.07,WSW,237,3.0,4.0,-999,-99.99,,,-99.99,,2013-03-11 00:53:00,
2013-03-10 21:03:00,69.0,-99.9,30.07,WSW,239,2.0,4.0,-999,-99.99,,,-99.99,,2013-03-11 01:03:00,
2013-03-10 21:13:00,69.0,-99.9,30.08,WSW,253,3.0,4.0,-999,-99.99,,,-99.99,,2013-03-11 01:13:00,
2013-03-10 21:23:00,68.0,-99.9,30.08,West,260,4.0,4.0,-999,-99.99,,,-99.99,,2013-03-11 01:23:00,
2013-03-10 21:33:00,68.0,-99.9,30.08,West,264,3.0,4.0,-999,-99.99,,,-99.99,,2013-03-11 01:33:00,
2013-03-10 21:43:00,68.0,-99.9,30.09,WNW,298,3.0,4.0,-999,-99.99,,,-99.99,,2013-03-11 01:43:00,
2013-03-10 21:53:00,67.0,-99.9,30.09,West,272,2.0,3.0,-999,-99.99,,,-99.99,,2013-03-11 01:53:00,
2013-03-10 22:03:00,67.0,-99.9,30.09,NW,326,2.0,3.0,-999,-99.99,,,-99.99,,2013-03-11 02:03:00,
2013-03-10 22:13:00,67.0,-99.9,30.10,NW,310,-999.0,3.0,-999,-99.99,,,-99.99,,2013-03-11 02:13:00,
2013-03-10 22:23:00,68.0,-99.9,30.10,East,93,-999.0,3.0,-999,-99.99,,,-99.99,,2013-03-11 02:23:00,
2013-03-10 22:32:00,68.0,-99.9,30.10,ENE,66,4.0,6.0,-999,-99.99,,,-99.99,,2013-03-11 02:32:00,
2013-03-10 22:42:00,68.0,-99.9,30.11,East,80,5.0,7.0,-999,-99.99,,,-99.99,,2013-03-11 02:42:00,
2013-03-10 22:53:00,68.0,-99.9,30.10,ENE,75,4.0,7.0,-999,-99.99,,,-99.99,,2013-03-11 02:53:00,
2013-03-10 23:02:00,68.0,-99.9,30.11,East,79,6.0,9.0,-999,-99.99,,,-99.99,,2013-03-11 03:02:00,
2013-03-10 23:12:00,67.0,-99.9,30.10,East,87,5.0,9.0,-999,-99.99,,,-99.99,,2013-03-11 03:12:00,
2013-03-10 23:22:00,67.0,-99.9,30.10,East,85,6.0,9.0,-999,-99.99,,,-99.99,,2013-03-11 03:22:00,
2013-03-10 23:32:00,66.0,-99.9,30.10,East,87,4.0,8.0,-999,-99.99,,,-99.99,,2013-03-11 03:32:00,
2013-03-10 23:43:00,66.0,-99.9,30.10,East,86,5.0,10.0,-999,-99.99,,,-99.99,,2013-03-11 03:43:00,
2013-03-10 23:53:00,66.0,-99.9,30.10,East,92,6.0,10.0,-999,-99.99,,,-99.99,,2013-03-11 03:53:00,